Regional Weather Roundup
Issued by NWS

Home | Current Version | Previous Version | Text Only | Print | Product List | Glossary On
Versions: 1 2 3 4 5 6 7 8 9 10 11 12 13 14 15 16 17 18 19 20 21 22 23 24 25 26 27 28 29 30 31 32 33 34 35 36 37 38 39 40 41 42 43 44 45 46 47 48 49 50
000
ASUS43 KFSD 271910
RWRSD

WEATHER ROUNDUP FOR SOUTH DAKOTA
NATIONAL WEATHER SERVICE SIOUX FALLS SD
200 PM CDT TUE JUN 27 2017

NOTE: "FAIR" INDICATES FEW OR NO CLOUDS BELOW 12,000 FEET WITH NO
SIGNIFICANT WEATHER AND/OR OBSTRUCTIONS TO VISIBILITY.


SDZ001>005-009-010-012>017-272000-
NORTHWEST AND NORTH CENTRAL SOUTH DAKOTA

CITY           SKY/WX    TMP DP  RH WIND       PRES   REMARKS
BUFFALO          N/A     90  45  21 W24G36    29.56F
FAITH            N/A     85  58  39 SW17G33   29.64R
MOBRIDGE       MOSUNNY   83  54  36 S28G35    29.63F
$$

SDZ012>016-024>037-041>051-057-063-072>074-272000-
SOUTHWEST AND SOUTH CENTRAL SOUTH DAKOTA

CITY           SKY/WX    TMP DP  RH WIND       PRES   REMARKS
RAPID CTY ARPT CLOUDY    84  57  39 VRB3      29.66S
PIERRE         MOSUNNY   86  58  38 S25G33    29.64F
CUSTER         CLOUDY    84  37  18 NW9G22    29.83S
ELLSWORTH AFB  CLOUDY    84  58  40 S7        29.66R
PHILIP         SUNNY     93  59  31 S21G26    29.60F
PINE RIDGE     PTSUNNY   86  60  41 S21G28    29.71F
SPEARFISH      LGT RAIN  84  46  26 W16G22    29.73F
WINNER         FAIR      87  58  37 S28G38    29.71F
$$

SDZ004>011-016>023-039-040-272000-
NORTHEAST SOUTH DAKOTA

CITY           SKY/WX    TMP DP  RH WIND       PRES   REMARKS
ABERDEEN       MOSUNNY   78  49  35 S26G40    29.74F
WATERTOWN      MOSUNNY   73  46  38 S18G28    29.85F
BROOKINGS      SUNNY     75  48  38 S23G29    29.88F
SISSETON         N/A     75  46  35 S20G28    29.80F
$$

SDZ017-020-022-023-036>040-048>070-272000-
SOUTHEAST SOUTH DAKOTA

CITY           SKY/WX    TMP DP  RH WIND       PRES   REMARKS
SIOUX FALLS    MOSUNNY   75  54  47 S16G28    29.90F
HURON          SUNNY     79  48  33 SE23G32   29.77F
CHAMBERLAIN    CLOUDY    82  58  44 SE22G31   29.74F
MITCHELL       SUNNY     81  49  32 S25G32    29.81F
YANKTON        MOSUNNY   78  57  48 SE21G28   29.87F
$$

ABBREVIATIONS USED IN REMARKS
   TC - TEMPERATURE IN CELSIUS
  WCI - WIND CHILL INDEX
   HX - HEAT INDEX
  VSB - VISIBILITY





USA.gov is the U.S. government's official web portal to all federal, state and local government web resources and services.